This is the latest recevied weather packets stored in our database for station/object KB1WCR. If no packets are shown the sender has not sent any weather packets the latest 10 day(s).
| Time | Temp. | Humidity | Pressure | Rain* | Wind** | Luminosity | Snow |
|---|---|---|---|---|---|---|---|
| 1777757506 | 8.33° C | 99% | 1010.9 hPa | 1.27 mm | - | 31 W/m² | - |
| 1777757205 | 7.78° C | 99% | 1011 hPa | 3.56 mm | - | 32 W/m² | - |
| 1777756903 | 7.78° C | 99% | 1011.2 hPa | 4.83 mm | - | 26 W/m² | - |
| 1777756598 | 7.78° C | 99% | 1011.2 hPa | 4.83 mm | - | 16 W/m² | - |
| 1777756296 | 7.78° C | 99% | 1011.1 hPa | 3.05 mm | - | 17 W/m² | - |
| 1777755993 | 8.33° C | 99% | 1011.3 hPa | 4.32 mm | - | 20 W/m² | - |
| 1777755690 | 8.33° C | 99% | 1011.3 hPa | 4.83 mm | - | 27 W/m² | - |
| 1777755387 | 8.33° C | 99% | 1011.2 hPa | 3.05 mm | - | 22 W/m² | - |
| 1777755083 | 8.33° C | 99% | 1011.3 hPa | 3.05 mm | - | 16 W/m² | - |
| 1777754780 | 8.33° C | 99% | 1011.1 hPa | 4.83 mm | - | 16 W/m² | - |
| 1777754478 | 8.33° C | 99% | 1011.1 hPa | 3.05 mm | - | 20 W/m² | - |
| 1777754175 | 8.33° C | 99% | 1011.1 hPa | 1.78 mm | - | 13 W/m² | - |
| 1777753873 | 8.33° C | 99% | 1011 hPa | 0 mm | - | 12 W/m² | - |
| 1777753568 | 8.33° C | 99% | 1011 hPa | 0 mm | - | 14 W/m² | - |
| 1777753266 | 8.33° C | 99% | 1011 hPa | 0 mm | - | 14 W/m² | - |
| 1777752962 | 8.33° C | 99% | 1011.1 hPa | 0 mm | - | 16 W/m² | - |
| 1777752659 | 8.33° C | 99% | 1011 hPa | 1.78 mm | - | 21 W/m² | - |
| 1777752354 | 8.33° C | 99% | 1010.9 hPa | 3.05 mm | - | 38 W/m² | - |
| 1777752052 | 8.33° C | 99% | 1011.1 hPa | 3.05 mm | - | 52 W/m² | - |
| 1777751750 | 8.33° C | 98% | 1011.2 hPa | 3.05 mm | - | 91 W/m² | - |
| 1777751446 | 8.33° C | 98% | 1011.2 hPa | 1.27 mm | - | 31 W/m² | - |
| 1777751143 | 8.89° C | 98% | 1011.2 hPa | 0 mm | - | 27 W/m² | - |
| 1777750839 | 8.89° C | 97% | 1011.3 hPa | 0 mm | - | 42 W/m² | - |
| 1777750536 | 8.89° C | 96% | 1011.2 hPa | 0 mm | - | 36 W/m² | - |
| 1777750233 | 8.89° C | 96% | 1011.3 hPa | 0 mm | - | 27 W/m² | - |
* Rain latest hour (hover to see other rain measurements)
** Current wind speed in m/s (hover to see current wind gust speed)